TimePDT,TemperatureF,Dew PointF,Humidity,Sea Level PressureIn,VisibilityMPH,Wind Direction,Wind SpeedMPH,Gust SpeedMPH,PrecipitationIn,Events,Conditions,WindDirDegrees,DateUTC
12:28 AM,37.4,35.6,93,29.78,7.0,Calm,Calm,-,0.02,Rain,Light Rain,0,2013-03-20 07:28:00
12:53 AM,37.0,35.1,93,29.78,10.0,Calm,Calm,-,0.02,Rain,Light Rain,0,2013-03-20 07:53:00
1:02 AM,37.4,35.6,93,29.76,10.0,Calm,Calm,-,0.00,Rain,Light Rain,0,2013-03-20 08:02:00
1:10 AM,37.4,35.6,93,29.75,9.0,Calm,Calm,-,0.01,Rain,Light Rain,0,2013-03-20 08:10:00
1:53 AM,36.0,34.0,93,29.75,8.0,Calm,Calm,-,0.03,Rain,Light Rain,0,2013-03-20 08:53:00
2:08 AM,35.6,33.8,93,29.72,7.0,Calm,Calm,-,0.01,Rain,Light Rain,0,2013-03-20 09:08:00
2:53 AM,35.1,33.1,92,29.71,6.0,Calm,Calm,-,0.04,Rain,Light Rain,0,2013-03-20 09:53:00
3:03 AM,35.6,33.8,93,29.69,5.0,Calm,Calm,-,0.01,Rain,Light Rain,0,2013-03-20 10:03:00
3:29 AM,33.8,33.8,100,29.67,7.0,Calm,Calm,-,0.03,Rain,Light Rain,0,2013-03-20 10:29:00
3:53 AM,34.0,33.1,96,29.67,5.0,Calm,Calm,-,0.04,Rain,Light Rain,0,2013-03-20 10:53:00
4:09 AM,33.8,33.8,100,29.64,7.0,Calm,Calm,-,0.00,Rain,Light Rain,0,2013-03-20 11:09:00
4:53 AM,34.0,33.1,96,29.65,8.0,Calm,Calm,-,0.01,Rain,Light Rain,0,2013-03-20 11:53:00
5:15 AM,33.8,33.8,100,29.62,8.0,Calm,Calm,-,0.01,Rain,Light Rain,0,2013-03-20 12:15:00
5:53 AM,35.1,33.1,92,29.62,10.0,Calm,Calm,-,0.01,,Overcast,0,2013-03-20 12:53:00
6:22 AM,35.6,33.8,93,29.59,9.0,Calm,Calm,-,N/A,,Overcast,0,2013-03-20 13:22:00
6:27 AM,35.6,33.8,93,29.59,2.5,Calm,Calm,-,N/A,,Overcast,0,2013-03-20 13:27:00
6:30 AM,35.6,33.8,93,29.59,1.0,Calm,Calm,-,N/A,,Overcast,0,2013-03-20 13:30:00
6:38 AM,35.6,33.8,93,29.58,0.5,Calm,Calm,-,N/A,Fog,Fog,0,2013-03-20 13:38:00
6:53 AM,35.1,33.1,92,29.60,0.2,Calm,Calm,-,N/A,Fog,Fog,0,2013-03-20 13:53:00
7:09 AM,35.6,33.8,93,29.57,0.5,Calm,Calm,-,N/A,Fog,Fog,0,2013-03-20 14:09:00
7:28 AM,35.6,33.8,93,29.55,1.2,Calm,Calm,-,0.00,Rain,Light Rain,0,2013-03-20 14:28:00
7:34 AM,35.6,33.8,93,29.55,3.0,Calm,Calm,-,0.00,Rain,Light Rain,0,2013-03-20 14:34:00
7:53 AM,35.1,33.1,92,29.57,4.0,Calm,Calm,-,0.00,Rain,Light Rain,0,2013-03-20 14:53:00
8:18 AM,35.6,33.8,93,29.53,2.0,Calm,Calm,-,0.01,Rain,Light Rain,0,2013-03-20 15:18:00
8:30 AM,35.6,33.8,93,29.53,4.0,East,5.8,-,0.01,,Overcast,100,2013-03-20 15:30:00
8:53 AM,35.1,34.0,96,29.54,6.0,Calm,Calm,-,0.01,,Overcast,0,2013-03-20 15:53:00
9:53 AM,36.0,35.1,97,29.53,10.0,Calm,Calm,-,N/A,,Overcast,0,2013-03-20 16:53:00
10:11 AM,37.4,35.6,93,29.50,10.0,Calm,Calm,-,N/A,,Overcast,0,2013-03-20 17:11:00
10:53 AM,39.0,36.0,89,29.51,10.0,SSE,6.9,-,0.00,Rain,Light Rain,160,2013-03-20 17:53:00
11:53 AM,39.9,37.0,89,29.52,10.0,South,4.6,-,0.00,,Overcast,180,2013-03-20 18:53:00
12:32 PM,39.2,37.4,93,29.47,6.0,SSE,10.4,-,0.01,Rain,Light Rain,160,2013-03-20 19:32:00
12:53 PM,41.0,39.0,93,29.49,10.0,SSW,9.2,-,0.01,,Overcast,200,2013-03-20 19:53:00
1:53 PM,45.0,39.0,80,29.48,10.0,SSW,11.5,-,N/A,,Overcast,200,2013-03-20 20:53:00
2:53 PM,48.9,39.9,71,29.46,10.0,South,15.0,-,N/A,,Scattered Clouds,180,2013-03-20 21:53:00
3:53 PM,51.1,39.0,63,29.48,10.0,South,13.8,-,N/A,,Clear,170,2013-03-20 22:53:00
4:53 PM,53.1,33.1,47,29.49,10.0,SSW,12.7,21.9,N/A,,Partly Cloudy,210,2013-03-20 23:53:00
5:53 PM,51.1,30.0,44,29.51,10.0,SSW,13.8,20.7,N/A,,Clear,210,2013-03-21 00:53:00
6:53 PM,46.9,30.0,52,29.58,10.0,SSW,12.7,20.7,N/A,,Overcast,210,2013-03-21 01:53:00
7:53 PM,41.0,34.0,76,29.63,10.0,ESE,8.1,-,N/A,,Partly Cloudy,120,2013-03-21 02:53:00
8:53 PM,41.0,33.1,73,29.66,10.0,Calm,Calm,-,N/A,,Clear,0,2013-03-21 03:53:00
9:53 PM,41.0,30.0,65,29.69,10.0,South,11.5,-,N/A,,Clear,170,2013-03-21 04:53:00
11:53 PM,37.9,27.0,65,29.75,10.0,WNW,5.8,-,N/A,,Overcast,300,2013-03-21 06:53:00